[[{"header":{"parameterUnit":"m.s-1","parameterCategory":1,"la1":30.2991,"la2":30.254,"lo1":-89.0895,"lo2":-89.0444,"dy":0.0017,"dx":0.0017,"nx":28,"ny":28,"refTime":"2023-08-21T03:00:00:Z","depth":0,"parameterNumber":2,"parameterNumberName":"U-component_of_WINDS"},"data":[0,0,0,0,0,0,0,0,0,0,0,0,0,0,0,0,0,0,0,0,0,0,0,0,0,0,0,0,0,0,0,0,0,0,0,0,0,0,0,0,0,0,0,0,0,0,0,0,0,0,0,0,0,0,0,0,0,0,-1.98,-1.9799,0,-1.9736,-1.9735,-1.9735,-1.9578,-1.9575,-1.9571,-1.9568,-1.9507,-1.9508,-1.951,0,0,0,0,0,0,0,0,0,0,0,0,0,-1.979,-1.9791,-1.98,-1.9799,-1.9798,-1.9736,-1.9735,-1.9734,-1.9579,-1.9575,-1.9571,-1.9567,-1.9506,-1.9508,-1.951,0,0,0,0,0,0,0,0,0,0,0,0,0,-1.9767,-1.9791,-1.98,-1.9713,-1.9705,-1.9736,-1.9735,-1.9734,-1.9579,-1.9574,-1.9569,-1.9565,-1.9506,-1.9508,-1.951,-1.9622,0,0,-1.9516,-1.9517,0,0,0,0,0,0,0,0,-1.9768,-1.9768,-1.9727,-1.9719,-1.971,-1.966,-1.9709,-1.9697,-1.9581,-1.9627,-1.9568,-1.9562,-1.9562,-1.9559,-1.9558,-1.9619,-1.9617,-1.9517,-1.9518,-1.9519,-1.9519,0,0,0,0,0,0,0,-1.977,-1.9769,-1.9775,-1.9726,-1.9716,-1.9678,-1.9669,-1.9706,-1.9623,-1.9623,-1.9611,-1.9605,-1.9556,-1.9556,-1.9556,-1.9616,-1.9517,-1.9519,-1.952,-1.9521,-1.9764,-1.9769,0,0,0,0,0,0,-1.9784,-1.9772,-1.9777,-1.9773,-1.9727,-1.9682,-1.9672,-1.9681,-1.9622,-1.9609,-1.961,-1.9598,-1.9555,-1.9553,-1.9553,-1.968,-1.9519,-1.9521,-1.9522,-1.9759,-1.9765,-1.9771,0,0,0,0,0,0,-1.9784,-1.9786,-1.9779,-1.9769,-1.9765,-1.9687,-1.9698,-1.9682,-1.9682,-1.9612,-1.9597,-1.9625,-1.9551,-1.955,-1.9605,-1.9675,-1.9522,-1.9524,-1.9753,-1.9761,-1.9768,-1.9935,0,0,0,0,0,0,-1.9785,-1.9787,-1.9829,-1.9771,-1.9766,-1.9833,-1.9703,-1.9685,-1.9686,-1.967,-1.9623,-1.961,-1.9547,-1.9603,-1.9608,-1.9676,-1.9525,-1.9746,-1.9757,-1.9766,-1.9923,-1.9948,-1.9969,0,0,0,0,0,-1.9785,-1.9879,-1.9831,-1.9833,-1.9817,-1.9838,-1.9835,-1.976,-1.9692,-1.9733,-1.9688,-1.9612,-1.9667,-1.961,-1.9614,-1.9684,-1.9742,-1.9754,-1.9765,-1.9913,-1.9943,-1.9968,0,0,0,0,0,0,-1.9949,-1.987,-1.9816,-1.9895,-1.9874,-1.9811,-1.9861,-1.9794,-1.9793,-1.9779,-1.9686,-1.9677,-1.9745,-1.9719,-1.9658,-1.9788,-1.9692,-1.9705,-1.9803,-1.9831,-1.9853,-1.9859,-1.9527,0,0,0,0,0,-1.9994,-2.0017,-1.9947,-2.0023,-2.0015,-1.994,-1.9946,-1.989,-1.9865,-1.9856,-1.9815,-1.9794,-1.9806,-1.9817,-1.9825,-1.9918,-1.9905,-1.9968,-1.9991,-2.001,-2.0022,-2.0069,-2.0096,-1.9809,-1.9809,-1.9809,0,0,-2.0088,-2.0048,-2.0068,-2.0055,-2.0032,-2.0058,-1.9934,-1.9967,-1.9985,-1.9861,-1.9911,-1.988,-1.9851,-1.9926,-1.9957,-1.9907,-2.0098,-2.0024,-2.004,-2.0042,-2.0084,-2.0111,-2.0135,-1.9817,-1.9816,-1.9814,0,0,-2.0273,-2.0244,-2.0304,-2.0283,-2.0249,-2.0198,-2.0212,-2.0159,-2.0133,-2.0181,-2.0088,-2.0109,-2.0133,-2.0115,-2.011,-2.0286,-2.0215,-2.0291,-2.0411,-2.0457,-2.048,-2.0499,-2.0562,-2.0586,-2.0303,-2.0304,-2.0304,0,-2.0394,-2.0429,-2.0344,-2.0382,-2.0379,-2.0265,-2.0325,-2.0309,-2.028,-2.0281,-2.0225,-2.025,-2.0223,-2.0292,-2.0335,-2.0334,-2.0348,-2.0296,-2.0483,-2.0502,-2.0519,-2.0578,-2.0602,-2.0313,-2.0312,-2.0311,-2.031,0,-2.058,-2.0605,-2.0657,-2.063,-2.0633,-2.0682,-2.0605,-2.0618,-2.0561,-2.0516,-2.0566,-2.0529,-2.0526,-2.0538,-2.0483,-2.0599,-2.0569,-2.05,-2.0401,-2.0557,-2.0611,-2.0633,-2.0327,-2.0323,-2.032,-2.0318,0,0,-2.0869,-2.0791,-2.0812,-2.0798,-2.0751,-2.0769,-2.0813,-2.0808,-2.0822,-2.0805,-2.084,-2.0861,-2.0795,-2.0789,-2.0731,-2.0772,-2.0914,-2.0697,-2.0695,-2.0739,-2.1039,-2.1092,-2.112,-2.0866,-2.087,-2.0873,-2.1041,0,-2.1042,-2.1111,-2.1035,-2.1121,-2.1143,-2.1034,-2.1072,-2.1047,-2.1007,-2.102,-2.0974,-2.0991,-2.0904,-2.0899,-2.0934,-2.0889,-2.0973,-2.0876,-2.0898,-2.09,-2.091,-2.1148,-2.1204,-2.1365,-2.1062,-2.1065,-2.1068,0,-2.1255,-2.1246,-2.1333,-2.1279,-2.1285,-2.1321,-2.131,-2.1324,-2.1294,-2.1261,-2.1253,-2.1182,-2.1221,-2.1124,-2.1178,-2.1113,-2.1117,-2.1097,-2.1101,-2.1101,-2.0995,-2.1155,-2.1415,-2.144,-2.11,-2.1098,-2.1095,0,-2.1457,-2.1467,-2.1519,-2.1511,-2.1449,-2.1476,-2.1452,-2.1416,-2.1418,-2.1409,-2.1409,-2.1406,-2.1405,-2.1404,-2.1334,-2.1269,-2.1396,-2.1293,-2.137,-2.1373,-2.1403,-2.1402,-2.1668,-2.1405,-2.1405,-2.1404,-2.1404,0,-2.1659,-2.1717,-2.1609,-2.1642,-2.1704,-2.1615,-2.1679,-2.1643,-2.1612,-2.1637,-2.1543,-2.1568,-2.1473,-2.1489,-2.1434,-2.1487,-2.1487,-2.1462,-2.1447,-2.1471,-2.1474,-2.1473,-2.1461,-2.1411,-2.1409,-2.1408,-2.1407,0,-2.1896,-2.1826,-2.1877,-2.1813,-2.1798,-2.1846,-2.1792,-2.182,-2.1771,-2.1804,-2.1806,-2.1731,-2.1744,-2.1674,-2.1675,-2.1638,-2.1718,-2.1683,-2.1728,-2.1717,-2.1799,-2.1793,-2.2075,-2.2107,-2.1823,-2.1826,-2.1828,0,-2.203,-2.2072,-2.2012,-2.202,-2.2,-2.2016,-2.2016,-2.1931,-2.1935,-2.1903,-2.1935,-2.194,-2.1939,-2.1965,-2.1912,-2.1912,-2.1877,-2.1975,-2.1876,-2.1899,-2.1879,-2.1877,-2.1881,-2.1997,-2.2,-2.2003,-2.2006,0,-2.2276,-2.2239,-2.2243,-2.2234,-2.2237,-2.2227,-2.2211,-2.2224,-2.213,-2.2141,-2.2151,-2.2151,-2.215,-2.2157,-2.2145,-2.2121,-2.2049,-2.2037,-2.2055,-2.208,-2.2104,-2.2093,-2.1785,-2.2031,-2.2029,-2.2027,-2.2025,-2.2024,-2.2466,-2.2497,-2.2459,-2.2466,-2.2444,-2.243,-2.2453,-2.2407,-2.2414,-2.2406,-2.2355,-2.2375,-2.2343,-2.232,-2.2302,-2.2317,-2.227,-2.2297,-2.2303,-2.2311,-2.2326,-2.2101,-2.2315,-2.2314,-2.2313,-2.2313,-2.2312,0,-2.2707,-2.2676,-2.2684,-2.2662,-2.2668,-2.2597,-2.2574,-2.2584,-2.2603,-2.2578,-2.2578,-2.2591,-2.2595,-2.2541,-2.2539,-2.2562,-2.2529,-2.2565,-2.2563,-2.2558,-2.2368,-2.2353,-2.2591,-2.2591,-2.2591,-2.2591,-2.2591,-2.2591,-2.2833,-2.2882,-2.284,-2.2877,-2.2846,-2.2864,-2.2857,-2.2844,-2.2823,-2.2841,-2.2844,-2.2808,-2.2771,-2.2765,-2.2767,-2.275,-2.2754,-2.2802,-2.2775,-2.2599,-2.2572,-2.2546,-2.2531,-2.2803,-2.2804,-2.2963,-2.2965,-2.2966]},{"header":{"parameterUnit":"m.s-1","parameterCategory":1,"la1":30.2991,"la2":30.254,"lo1":-89.0895,"lo2":-89.0444,"dy":0.0017,"dx":0.0017,"nx":28,"ny":28,"refTime":"2023-08-21T03:00:00:Z","depth":0,"parameterNumber":3,"parameterNumberName":"V-component_of_WINDS"},"data":[0,0,0,0,0,0,0,0,0,0,0,0,0,0,0,0,0,0,0,0,0,0,0,0,0,0,0,0,0,0,0,0,0,0,0,0,0,0,0,0,0,0,0,0,0,0,0,0,0,0,0,0,0,0,0,0,0,0,-1.5741,-1.5742,0,-1.5815,-1.5815,-1.5816,-1.5868,-1.5869,-1.5869,-1.5869,-1.594,-1.5941,-1.5943,0,0,0,0,0,0,0,0,0,0,0,0,0,-1.564,-1.5642,-1.5741,-1.5742,-1.5743,-1.5814,-1.5815,-1.5816,-1.5868,-1.5869,-1.5869,-1.587,-1.594,-1.5941,-1.5943,0,0,0,0,0,0,0,0,0,0,0,0,0,-1.5696,-1.5643,-1.5741,-1.5777,-1.5781,-1.5814,-1.5816,-1.5817,-1.5868,-1.5869,-1.5869,-1.587,-1.5939,-1.5941,-1.5943,-1.5944,0,0,-1.595,-1.5951,0,0,0,0,0,0,0,0,-1.5693,-1.57,-1.5771,-1.5775,-1.5779,-1.5833,-1.5806,-1.5859,-1.5868,-1.5835,-1.5869,-1.587,-1.5904,-1.5909,-1.5921,-1.5948,-1.5951,-1.595,-1.5952,-1.5953,-1.5953,0,0,0,0,0,0,0,-1.5689,-1.5697,-1.577,-1.5772,-1.5777,-1.5788,-1.5797,-1.5816,-1.5865,-1.5838,-1.5842,-1.585,-1.5906,-1.5919,-1.5923,-1.5952,-1.595,-1.5952,-1.5954,-1.5955,-1.5983,-1.5982,0,0,0,0,0,0,-1.568,-1.5693,-1.5768,-1.5772,-1.5737,-1.579,-1.5799,-1.5815,-1.5865,-1.5873,-1.5849,-1.5852,-1.5915,-1.592,-1.5926,-1.593,-1.5953,-1.5955,-1.5956,-1.5983,-1.5982,-1.5982,0,0,0,0,0,0,-1.5678,-1.5686,-1.5765,-1.5734,-1.5745,-1.5791,-1.5808,-1.5816,-1.5829,-1.5873,-1.5882,-1.5854,-1.5915,-1.5923,-1.594,-1.5933,-1.5956,-1.5958,-1.5984,-1.5983,-1.5982,-1.5938,0,0,0,0,0,0,-1.5674,-1.5685,-1.5687,-1.5734,-1.5746,-1.5778,-1.5808,-1.5817,-1.5833,-1.5838,-1.588,-1.5887,-1.5916,-1.5936,-1.5942,-1.5936,-1.596,-1.5985,-1.5983,-1.5982,-1.594,-1.5935,-1.5932,0,0,0,0,0,-1.5671,-1.567,-1.5687,-1.5695,-1.575,-1.5778,-1.5785,-1.582,-1.5833,-1.5834,-1.5863,-1.5886,-1.5933,-1.5937,-1.5944,-1.5939,-1.5985,-1.5984,-1.5982,-1.5942,-1.5936,-1.5932,0,0,0,0,0,0,-1.562,-1.5677,-1.5696,-1.5711,-1.5739,-1.5787,-1.5789,-1.5813,-1.5837,-1.584,-1.588,-1.5889,-1.5902,-1.5923,-1.5926,-1.5943,-1.5962,-1.5962,-1.5929,-1.5924,-1.592,-1.5914,-1.5961,0,0,0,0,0,-1.5611,-1.563,-1.5679,-1.5687,-1.5701,-1.5743,-1.5756,-1.5781,-1.5811,-1.5823,-1.5853,-1.588,-1.5901,-1.5914,-1.5936,-1.5944,-1.5953,-1.5944,-1.594,-1.5936,-1.5935,-1.594,-1.5936,-1.5977,-1.5977,-1.5977,0,0,-1.5591,-1.5625,-1.5634,-1.5678,-1.5703,-1.5721,-1.5752,-1.577,-1.5783,-1.5825,-1.5843,-1.5866,-1.5899,-1.5912,-1.5919,-1.5929,-1.5926,-1.5934,-1.5931,-1.5932,-1.5938,-1.5934,-1.593,-1.5976,-1.5977,-1.5977,0,0,-1.5565,-1.5593,-1.5603,-1.5628,-1.5666,-1.5694,-1.5696,-1.574,-1.5757,-1.5777,-1.5809,-1.5824,-1.586,-1.5882,-1.5898,-1.5881,-1.5903,-1.5887,-1.5864,-1.5868,-1.5865,-1.5862,-1.5855,-1.5852,-1.5886,-1.5886,-1.5886,0,-1.5535,-1.5565,-1.5605,-1.5621,-1.5638,-1.5679,-1.5689,-1.571,-1.5753,-1.5763,-1.5775,-1.5821,-1.5846,-1.5864,-1.586,-1.5872,-1.5874,-1.5881,-1.5863,-1.586,-1.5858,-1.5851,-1.5849,-1.5883,-1.5884,-1.5884,-1.5884,0,-1.5526,-1.5546,-1.5549,-1.5591,-1.5609,-1.5622,-1.5662,-1.5676,-1.5699,-1.5725,-1.5743,-1.5776,-1.5804,-1.5811,-1.5833,-1.5832,-1.5837,-1.5855,-1.5875,-1.5851,-1.5846,-1.5843,-1.588,-1.5881,-1.5882,-1.5882,0,0,-1.5467,-1.5532,-1.5533,-1.5552,-1.5597,-1.5613,-1.5627,-1.5657,-1.5667,-1.5695,-1.5707,-1.5737,-1.5754,-1.5772,-1.5797,-1.5801,-1.5784,-1.5819,-1.582,-1.581,-1.5783,-1.5768,-1.5764,-1.58,-1.58,-1.5799,-1.578,0,-1.5447,-1.5476,-1.5513,-1.5528,-1.5547,-1.5587,-1.5599,-1.5627,-1.5652,-1.567,-1.5698,-1.5718,-1.574,-1.5751,-1.5757,-1.5785,-1.5779,-1.5787,-1.5809,-1.581,-1.5798,-1.5762,-1.5745,-1.5725,-1.5778,-1.5778,-1.5777,0,-1.5426,-1.5454,-1.5472,-1.5516,-1.5525,-1.5535,-1.5566,-1.5583,-1.5616,-1.5634,-1.5654,-1.5682,-1.5698,-1.5717,-1.5738,-1.5742,-1.5754,-1.5769,-1.5769,-1.5771,-1.5791,-1.5761,-1.572,-1.5716,-1.5775,-1.5775,-1.5775,0,-1.538,-1.5422,-1.5438,-1.5453,-1.5506,-1.5512,-1.5533,-1.5567,-1.5583,-1.5609,-1.5619,-1.5646,-1.566,-1.568,-1.5713,-1.5724,-1.573,-1.5752,-1.5744,-1.5743,-1.5742,-1.5741,-1.57,-1.5752,-1.5752,-1.5752,-1.5752,0,-1.5352,-1.5361,-1.5418,-1.5427,-1.5439,-1.548,-1.549,-1.5515,-1.5545,-1.5559,-1.5595,-1.5607,-1.5652,-1.5669,-1.5695,-1.5708,-1.5715,-1.5728,-1.5735,-1.5724,-1.5722,-1.573,-1.5732,-1.5751,-1.5752,-1.5752,-1.5752,0,-1.5301,-1.534,-1.536,-1.5408,-1.5421,-1.5427,-1.5467,-1.5477,-1.5506,-1.5523,-1.5529,-1.5573,-1.5595,-1.5631,-1.5663,-1.5681,-1.5688,-1.57,-1.5677,-1.5681,-1.567,-1.567,-1.5632,-1.5628,-1.5684,-1.5683,-1.5683,0,-1.5279,-1.5287,-1.5337,-1.535,-1.5371,-1.5392,-1.5408,-1.545,-1.5465,-1.5504,-1.5509,-1.5534,-1.5556,-1.559,-1.5623,-1.5647,-1.5659,-1.5645,-1.5663,-1.5652,-1.5657,-1.5655,-1.5656,-1.5639,-1.5639,-1.5638,-1.5637,0,-1.5236,-1.5256,-1.5279,-1.5309,-1.5328,-1.5354,-1.5381,-1.5389,-1.5436,-1.5451,-1.5475,-1.5493,-1.5527,-1.555,-1.558,-1.5601,-1.5626,-1.5632,-1.5631,-1.5619,-1.5604,-1.561,-1.5663,-1.5632,-1.5632,-1.5633,-1.5633,-1.5633,-1.5198,-1.5207,-1.5244,-1.5269,-1.5294,-1.5319,-1.533,-1.5361,-1.5382,-1.5414,-1.5437,-1.5459,-1.5491,-1.5534,-1.5554,-1.5571,-1.5582,-1.5581,-1.558,-1.5579,-1.5574,-1.5604,-1.5576,-1.5576,-1.5577,-1.5577,-1.5577,0,-1.5156,-1.5182,-1.5205,-1.5242,-1.5261,-1.5286,-1.5317,-1.5331,-1.5351,-1.538,-1.5401,-1.5428,-1.5452,-1.5488,-1.5514,-1.5521,-1.5533,-1.5526,-1.5525,-1.5529,-1.5563,-1.5561,-1.5516,-1.5516,-1.5516,-1.5516,-1.5516,-1.5516,-1.5136,-1.5152,-1.5176,-1.5204,-1.523,-1.5253,-1.5269,-1.5291,-1.5315,-1.5344,-1.5364,-1.5388,-1.542,-1.5449,-1.5471,-1.5481,-1.5488,-1.5477,-1.549,-1.5521,-1.5527,-1.5532,-1.553,-1.5479,-1.5479,-1.5454,-1.5454,-1.5454]}]]